This is the latest recevied weather packets stored in our database for station/object SV6GMP-10. If no packets are shown the sender has not sent any weather packets the latest 10 day(s).
| Time | Temp. | Humidity | Pressure | Rain* | Wind** | Luminosity | Snow |
|---|---|---|---|---|---|---|---|
| 1788472996 | 31.67° C | 48% | 1013.4 hPa | - | - | - | - |
| 1788472096 | 32.22° C | 46% | 1013.4 hPa | - | - | - | - |
| 1788471196 | 32.22° C | 46% | 1013.3 hPa | - | - | - | - |
| 1788470296 | 32.22° C | 46% | 1013.3 hPa | - | - | - | - |
| 1788469396 | 32.22° C | 47% | 1013.4 hPa | - | - | - | - |
| 1788468496 | 32.22° C | 48% | 1013.2 hPa | - | - | - | - |
| 1788467596 | 32.78° C | 50% | 1013.2 hPa | - | - | - | - |
| 1788466696 | 32.78° C | 49% | 1013.2 hPa | - | - | - | - |
| 1788465796 | 32.78° C | 51% | 1013.3 hPa | - | - | - | - |
| 1788464896 | 32.78° C | 51% | 1013.3 hPa | - | - | - | - |
| 1788463996 | 32.78° C | 50% | 1013.4 hPa | - | - | - | - |
| 1788463096 | 32.78° C | 52% | 1013.3 hPa | - | - | - | - |
| 1788462196 | 32.78° C | 56% | 1013.4 hPa | - | - | - | - |
| 1788461296 | 32.78° C | 60% | 1013.2 hPa | - | - | - | - |
| 1788460395 | 32.78° C | 59% | 1013.1 hPa | - | - | - | - |
| 1788459495 | 32.78° C | 62% | 1012.7 hPa | - | - | - | - |
| 1788458595 | 33.33° C | 65% | 1012.6 hPa | - | - | - | - |
| 1788457695 | 33.33° C | 65% | 1012.2 hPa | - | - | - | - |
| 1788456795 | 33.33° C | 64% | 1012 hPa | - | - | - | - |
| 1788455895 | 33.33° C | 64% | 1011.9 hPa | - | - | - | - |
| 1788454995 | 33.33° C | 66% | 1012.1 hPa | - | - | - | - |
| 1788454095 | 33.33° C | 65% | 1012.5 hPa | - | - | - | - |
| 1788453195 | 32.78° C | 66% | 1012.5 hPa | - | - | - | - |
| 1788452295 | 33.33° C | 66% | 1012.7 hPa | - | - | - | - |
| 1788451395 | 33.33° C | 65% | 1012.9 hPa | - | - | - | - |
* Rain since midnight (hover to see other rain measurements)
** Current wind speed in m/s (hover to see current wind gust speed)